Regional Weather Roundup
Issued by NWS

Home | Current Version | Previous Version | Graphics & Text | Print | Product List | Glossary On
Versions: 1 2 3 4 5 6 7 8 9 10 11 12 13 14 15 16 17 18 19 20 21 22 23 24 25 26 27 28 29 30 31 32 33 34 35 36 37 38 39 40 41 42 43 44 45 46 47 48 49 50
000
ASUS44 KMEG 271900
RWRTN
TENNESSEE HOURLY STATE WEATHER ROUNDUP
NATIONAL WEATHER SERVICE MEMPHIS TN
200 PM CDT THU AUG 27 2015

TNZ002-004-019-021-049-052-054-088>092-272000-
WEST TENNESSEE

CITY           SKY/WX    TMP DP  RH WIND       PRES   REMARKS
MEMPHIS INTL   MOSUNNY   82  55  39 NE7       30.10F
NWS MEMPHIS      N/A     81 N/A N/A MISG        N/A
JACKSON        PTSUNNY   80  58  46 NE7       30.10S
DYERSBURG      PTSUNNY  N/A N/A N/A MISG        N/A
UNION CITY     PTSUNNY   79  59  50 VRB3      30.12R
PARIS          MOSUNNY   79  57  47 NE9       30.12S
LEXINGTON      MOSUNNY   79  54  41 NE12      30.09R
$$

TNZ008-025-027-028-033-062-065-066-272000-
NORTH MIDDLE TENNESSEE

CITY           SKY/WX    TMP DP  RH WIND       PRES   REMARKS
NASHVILLE      MOSUNNY   81  52  36 E10       30.08F
CLARKSVILLE    SUNNY     81  53  37 VRB5G18   30.10S
COOKEVILLE     MOSUNNY   82  63  51 VRB6      30.09F
CROSSVILLE     PTSUNNY   76  58  53 VRB6      30.13F
$$

TNZ061-075-076-078-094-096-097-272000-
SOUTH MIDDLE TENNESSEE

CITY           SKY/WX    TMP DP  RH WIND       PRES   REMARKS
FAYETTEVILLE     N/A     77  61  57 NE3       30.06F
TULLAHOMA      MOSUNNY   79  61  53 VRB3      30.09F
WINCHESTER     MOSUNNY   79  63  57 VRB3      30.07F
MCMINNVILLE    MOSUNNY   79  64  61 VRB5      30.09F
COLUMBIA       SUNNY     81  57  44 VRB6      30.07S
SHELBYVILLE    SUNNY     81  61  50 VRB6      30.08F
$$

TNZ017-018-042-046-047-272000-
NORTHEAST TENNESSEE

CITY           SKY/WX    TMP DP  RH WIND       PRES   REMARKS
TRI CITIES     MOSUNNY   81  58  45 W3        30.10F
ELIZABETHTON   MOCLDY    79  55  44 CALM      30.10F
$$

TNZ012-013-036-069-073-074-272000-
CENTRAL EAST TENNESSEE

CITY           SKY/WX    TMP DP  RH WIND       PRES   REMARKS
KNOXVILLE      MOSUNNY   83  60  45 NE8       30.07F
OAK RIDGE      SUNNY     81  59  47 VRB5      30.10F
GATLINBURG     PTCLDY    82  57  42 CALM      30.07F
$$

TNZ083-085-099-272000-
SOUTHEAST TENNESSEE

CITY           SKY/WX    TMP DP  RH WIND       PRES   REMARKS
CHATTANOOGA    MOSUNNY   82  63  52 N9        30.06F
$$

SKY/WX REPORTED AS FAIR MEANS FEW OR NO CLOUDS BELOW
12 THOUSAND FEET.



USA.gov is the U.S. government's official web portal to all federal, state and local government web resources and services.